Location: Marysville Observatory
(48.1092°N, 122.1645°W)
Time: 19:36:24
(UTC-07:00)

ISS - Visible Passes

Search period start: 02 August 2015 00:00
Search period end: 12 August 2015 00:00
Orbit: 401 x 403 km, 51.6° (Epoch: 02 August)

Date Brightness Start Highest point End Pass type
(mag) Time Alt. Az. Time Alt. Az. Time Alt. Az.
02 Aug -0.4 01:29:03 10° WNW 01:29:13 11° WNW 01:29:13 11° WNW visible
02 Aug -2.7 21:23:02 10° SSW 21:26:02 35° SE 21:29:04 10° ENE visible
02 Aug -2.8 22:59:09 10° W 23:02:23 59° NNW 23:05:34 10° ENE visible
03 Aug -1.7 00:35:58 10° WNW 00:38:10 32° NW 00:38:10 32° NW visible
03 Aug -3.3 22:06:03 10° WSW 22:09:19 82° NNW 22:12:36 10° ENE visible
03 Aug -2.1 23:42:51 10° WNW 23:46:00 42° N 23:46:57 32° NE visible
04 Aug -0.3 01:19:27 10° WNW 01:19:32 10° WNW 01:19:32 10° WNW visible
04 Aug -3.4 21:13:04 10° SW 21:16:18 67° SSE 21:19:33 10° ENE visible
04 Aug -2.3 22:49:41 10° W 22:52:51 46° N 22:55:40 12° ENE visible
05 Aug -1.5 00:26:24 10° WNW 00:28:15 29° NW 00:28:15 29° NW visible
05 Aug -2.6 21:56:30 10° W 21:59:42 55° NNW 22:02:56 10° ENE visible
05 Aug -2.3 23:33:19 10° WNW 23:36:28 44° N 23:36:56 41° NNE visible
06 Aug -2.2 22:40:10 10° WNW 22:43:18 42° N 22:45:37 16° ENE visible
07 Aug -1.2 00:16:44 10° WNW 00:18:11 24° WNW 00:18:11 24° WNW visible
07 Aug -2.2 21:46:58 10° W 21:50:08 44° N 21:53:17 10° ENE visible
07 Aug -2.8 23:23:39 10° WNW 23:26:51 55° N 23:26:51 55° N visible
08 Aug -2.4 22:30:33 10° WNW 22:33:43 46° N 22:35:31 22° ENE visible
09 Aug -1.0 00:07:01 10° WNW 00:08:06 19° WNW 00:08:06 19° WNW visible
09 Aug -2.2 21:37:23 10° WNW 21:40:32 42° N 21:43:39 10° ENE visible
09 Aug -3.0 23:13:55 10° WNW 23:16:46 64° NW 23:16:46 64° NW visible
10 Aug -2.9 22:20:49 10° WNW 22:24:03 59° NNE 22:25:26 30° E visible
10 Aug -0.6 23:57:21 10° WNW 23:58:01 14° W 23:58:01 14° W visible
11 Aug -2.5 21:27:41 10° WNW 21:30:52 47° N 21:34:02 10° E visible
11 Aug -2.6 23:04:09 10° WNW 23:06:42 46° W 23:06:42 46° W visible
